Hourly Data Report for August 22, 2014

All times are specified in Local Standard Time (LST). Add 1 hour to adjust for Daylight Saving Time where and when it is observed.

Metadata including Station Name, Province, Latitude, Longitude, Elevation, Climate ID, WMO ID, TC ID
GRANBY
QUEBEC
Latitude: 45°22'22.000" N Longitude: 72°46'26.000" W Elevation: 86.00 m
Climate ID: 7022802 WMO ID: TC ID: MGB
Hourly Data Report for August 21, 2014
Temp Definition
°C

Dew Point Temp Definition
°C

Rel Hum Definition
%

Wind Dir Definition
10's deg
Wind Spd Definition
km/h

Visibility Definition
km

Stn Press Definition
kPa

Hmdx Definition

Wind Chill Definition

Weather Definition

00:00 19.1 14.1 73 5 2 100.55 LegendNANA
01:00 19.4 13.7 70 3 2 100.53 LegendNANA
02:00 19.3 14.1 72 3 2 100.53 LegendNANA
03:00 18.4 14.3 77 0 1 100.53 LegendNANA
04:00 17.4 15.0 86   0 100.55 LegendNANA
05:00 17.7 15.0 84 0 1 100.61 LegendNANA
06:00 18.2 14.9 81 3 3 100.65 LegendNANA
07:00 19.7 15.2 75 10 5 100.65 LegendNANA
08:00 21.2 15.6 70 12 7 100.66 26 LegendNANA
09:00 22.4 15.6 66 13 5 100.69 27 LegendNANA
10:00 22.5 16.1 67 16 4 100.68 27 LegendNANA
11:00 22.8 15.7 64 14 6 100.67 27 LegendNANA
12:00 22.8 15.3 63 11 5 100.68 27 LegendNANA
13:00 22.7 15.1 62 11 4 100.69 27 LegendNANA
14:00 22.9 15.2 62 12 4 100.66 27 LegendNANA
15:00 22.4 15.0 63 16 4 100.65 26 LegendNANA
16:00 21.3 16.4 74 21 2 100.66 26 LegendNANA
17:00 20.1 15.5 75 18 2 100.67 LegendNANA
18:00 19.5 15.9 80 19 4 100.67 LegendNANA
19:00 18.7 15.6 82   0 100.68 LegendNANA
20:00 18.2 14.2 77 19 2 100.72 LegendNANA
21:00 18.1 13.3 74 11 6 100.75 LegendNANA
22:00 17.9 13.1 73 12 12 100.71 LegendNANA
23:00 17.6 13.2 75 11 4 100.71 LegendNANA

Notes on Data Quality.

Legend
  • E = Estimated
  • M = Missing
  • NA = Not Available
  • ‡ = Partner data that is not subject to review by the National Climate Archives